Regional Weather Roundup
Issued by NWS

Home | Current Version | Previous Version | Graphics & Text | Print | Product List | Glossary On
Versions: 1 2 3 4 5 6 7 8 9 10 11 12 13 14 15 16 17 18 19 20 21 22 23 24 25 26 27
000
ASUS45 KBOI 230910
RWRID

IDAHO REGIONAL WEATHER ROUNDUP
NATIONAL WEATHER SERVICE BOISE ID
200 AM MST MON JAN 23 2017

NOTE: "FAIR" INDICATES FEW OR NO CLOUDS BELOW 12000 FEET
WITH NO SIGNIFICANT WEATHER AND/OR OBSTRUCTIONS TO VISIBILITY

IDZ012-014-231000-
SOUTHWEST IDAHO


CITY           SKY/WX    TMP DP  RH WIND       PRES   REMARKS
BOISE          CLOUDY    28  26  92 CALM      29.60F
CALDWELL       FOG       25  24  96 W6        29.64R VSB 1/4 WCI  18
MOUNTAIN HOME  CLOUDY    30  30 100 CALM      29.58F
$$

IDZ016-017-231000-
SOUTHCENTRAL IDAHO


CITY           SKY/WX    TMP DP  RH WIND       PRES   REMARKS
BURLEY         CLOUDY    32  29  88 N5        29.57F WCI  27
JEROME         CLOUDY    31  29  92 NE15      29.57F WCI  20
TWIN FALLS     CLOUDY    32  29  88 N3        29.56F
$$

IDZ019>023-231000-
SOUTHEAST IDAHO


CITY           SKY/WX    TMP DP  RH WIND       PRES   REMARKS
IDAHO FALLS    CLOUDY    29  29 100 CALM      29.63F
POCATELLO      CLOUDY    33  29  85 CALM      29.61F
REXBURG        CLOUDY    28  28 100 NE5       29.65S WCI  23
$$

IDZ006-010-011-018-031-032-231000-
CENTRAL IDAHO MOUNTAINS


CITY           SKY/WX    TMP DP  RH WIND       PRES   REMARKS
MCCALL         PTCLDY     8   4  83 NE3       29.56F FOG
HAILEY         CLOUDY    27  23  86 N6        29.59F WCI  20
STANLEY          N/A      7   4  87 CALM      29.57F
SALMON         CLOUDY     9   7  92 CALM      29.66S
CHALLIS        CLOUDY    12  12 100 W5        29.63F WCI   4
$$

IDZ002-004-006-007-026-231000-
NORTHERN IDAHO


CITY           SKY/WX    TMP DP  RH WIND       PRES   REMARKS
LEWISTON       CLEAR     31  28  89 CALM      29.66S
LOWELL           N/A     32  30  92 CALM      29.72R
COEUR D`ALENE  CLOUDY    33  32  96 SE3       29.61F
MULLAN PASS    CLOUDY    24  21  88 CALM      29.50S
$$




USA.gov is the U.S. government's official web portal to all federal, state and local government web resources and services.